[[{"header":{"parameterUnit":"m.s-1","parameterCategory":1,"la1":30.2991,"la2":30.254,"lo1":-89.0895,"lo2":-89.0444,"dy":0.0017,"dx":0.0017,"nx":28,"ny":28,"refTime":"2025-03-18T03:00:00:Z","depth":0,"parameterNumber":2,"parameterNumberName":"U-component_of_WINDS"},"data":[0,0,0,0,0,0,0,0,0,0,0,0,0,0,0,0,0,0,0,0,0,0,0,0,0,0,0,0,0,0,0,0,0,0,0,0,0,0,0,0,0,0,0,0,0,0,0,0,0,0,0,0,0,0,0,0,0,0,-1.2504,-1.2504,0,-1.2496,-1.2496,-1.2496,-1.2478,-1.2477,-1.2477,-1.2477,-1.247,-1.247,-1.247,0,0,0,0,0,0,0,0,0,0,0,0,0,-1.2505,-1.2505,-1.2504,-1.2504,-1.2504,-1.2496,-1.2496,-1.2496,-1.2478,-1.2477,-1.2477,-1.2477,-1.247,-1.247,-1.247,0,0,0,0,0,0,0,0,0,0,0,0,0,-1.2501,-1.2505,-1.2504,-1.2494,-1.2493,-1.2496,-1.2496,-1.2496,-1.2478,-1.2477,-1.2477,-1.2476,-1.247,-1.247,-1.247,-1.2482,0,0,-1.2471,-1.2471,0,0,0,0,0,0,0,0,-1.2502,-1.2501,-1.2495,-1.2494,-1.2493,-1.2487,-1.2493,-1.2491,-1.2478,-1.2484,-1.2477,-1.2476,-1.2476,-1.2476,-1.2475,-1.2482,-1.2482,-1.2471,-1.2471,-1.2471,-1.2471,0,0,0,0,0,0,0,-1.2502,-1.2502,-1.2501,-1.2495,-1.2494,-1.249,-1.2489,-1.2493,-1.2483,-1.2483,-1.2482,-1.2481,-1.2475,-1.2475,-1.2475,-1.2482,-1.2471,-1.2471,-1.2471,-1.2471,-1.2499,-1.2499,0,0,0,0,0,0,-1.2503,-1.2502,-1.2501,-1.25,-1.2496,-1.249,-1.2489,-1.249,-1.2483,-1.2481,-1.2482,-1.248,-1.2475,-1.2475,-1.2475,-1.2489,-1.2471,-1.2471,-1.2471,-1.2498,-1.2499,-1.25,0,0,0,0,0,0,-1.2503,-1.2503,-1.2501,-1.2501,-1.25,-1.2491,-1.2492,-1.249,-1.249,-1.2482,-1.248,-1.2483,-1.2475,-1.2474,-1.2481,-1.2489,-1.2471,-1.2471,-1.2498,-1.2498,-1.2499,-1.2518,0,0,0,0,0,0,-1.2504,-1.2504,-1.2508,-1.2501,-1.25,-1.2507,-1.2492,-1.249,-1.249,-1.2488,-1.2483,-1.2481,-1.2474,-1.248,-1.2481,-1.2489,-1.2472,-1.2497,-1.2498,-1.2499,-1.2517,-1.2519,-1.2522,0,0,0,0,0,-1.2504,-1.2514,-1.2508,-1.2508,-1.2505,-1.2507,-1.2507,-1.2498,-1.2491,-1.2495,-1.249,-1.2482,-1.2488,-1.2481,-1.2482,-1.249,-1.2496,-1.2498,-1.2499,-1.2515,-1.2519,-1.2522,0,0,0,0,0,0,-1.2522,-1.2512,-1.2506,-1.2514,-1.2512,-1.2504,-1.251,-1.2502,-1.2502,-1.25,-1.249,-1.2489,-1.2497,-1.2494,-1.2487,-1.2502,-1.2491,-1.2492,-1.2503,-1.2506,-1.2509,-1.2509,-1.2472,0,0,0,0,0,-1.2527,-1.2529,-1.2521,-1.2528,-1.2528,-1.2519,-1.2519,-1.2513,-1.251,-1.2509,-1.2504,-1.2502,-1.2504,-1.2505,-1.2506,-1.2516,-1.2515,-1.2522,-1.2525,-1.2527,-1.2528,-1.2534,-1.2537,-1.2504,-1.2504,-1.2504,0,0,-1.2537,-1.2532,-1.2534,-1.2532,-1.2529,-1.2532,-1.2518,-1.2522,-1.2524,-1.251,-1.2515,-1.2512,-1.2509,-1.2517,-1.2521,-1.2515,-1.2537,-1.2528,-1.253,-1.253,-1.2536,-1.2539,-1.2541,-1.2505,-1.2505,-1.2505,0,0,-1.2557,-1.2553,-1.256,-1.2557,-1.2553,-1.2548,-1.2549,-1.2543,-1.254,-1.2545,-1.2535,-1.2538,-1.254,-1.2539,-1.2538,-1.2558,-1.255,-1.2559,-1.2572,-1.2578,-1.2581,-1.2583,-1.259,-1.2593,-1.256,-1.256,-1.256,0,-1.257,-1.2574,-1.2564,-1.2568,-1.2568,-1.2555,-1.2562,-1.256,-1.2557,-1.2557,-1.255,-1.2554,-1.2551,-1.2559,-1.2564,-1.2564,-1.2565,-1.2559,-1.2581,-1.2583,-1.2585,-1.2592,-1.2595,-1.2561,-1.2561,-1.2561,-1.2561,0,-1.259,-1.2593,-1.2599,-1.2595,-1.2596,-1.2601,-1.2593,-1.2594,-1.2588,-1.2583,-1.2589,-1.2585,-1.2585,-1.2586,-1.258,-1.2594,-1.2591,-1.2583,-1.2572,-1.259,-1.2596,-1.2598,-1.2563,-1.2563,-1.2562,-1.2562,0,0,-1.2622,-1.2613,-1.2615,-1.2614,-1.2609,-1.2611,-1.2616,-1.2616,-1.2617,-1.2616,-1.262,-1.2623,-1.2615,-1.2615,-1.2609,-1.2614,-1.263,-1.2605,-1.2605,-1.261,-1.2645,-1.2651,-1.2654,-1.2625,-1.2625,-1.2626,-1.2645,0,-1.2641,-1.2648,-1.264,-1.265,-1.2652,-1.264,-1.2645,-1.2642,-1.2638,-1.264,-1.2635,-1.2637,-1.2628,-1.2627,-1.2632,-1.2627,-1.2637,-1.2626,-1.2629,-1.2629,-1.263,-1.2657,-1.2664,-1.2683,-1.2648,-1.2648,-1.2648,0,-1.2664,-1.2663,-1.2673,-1.2667,-1.2668,-1.2672,-1.2671,-1.2673,-1.267,-1.2667,-1.2666,-1.2659,-1.2664,-1.2653,-1.266,-1.2652,-1.2653,-1.2651,-1.2652,-1.2652,-1.264,-1.2658,-1.2688,-1.2691,-1.2652,-1.2652,-1.2652,0,-1.2686,-1.2687,-1.2693,-1.2692,-1.2686,-1.2689,-1.2687,-1.2683,-1.2684,-1.2684,-1.2684,-1.2684,-1.2684,-1.2685,-1.2678,-1.2671,-1.2686,-1.2674,-1.2684,-1.2684,-1.2687,-1.2687,-1.2718,-1.2688,-1.2688,-1.2688,-1.2688,0,-1.2708,-1.2715,-1.2703,-1.2707,-1.2714,-1.2705,-1.2712,-1.2709,-1.2706,-1.2709,-1.2699,-1.2702,-1.2692,-1.2695,-1.2689,-1.2696,-1.2696,-1.2694,-1.2692,-1.2695,-1.2695,-1.2695,-1.2694,-1.2688,-1.2688,-1.2688,-1.2688,0,-1.2734,-1.2727,-1.2733,-1.2726,-1.2725,-1.273,-1.2725,-1.2728,-1.2723,-1.2728,-1.2728,-1.2721,-1.2723,-1.2716,-1.2717,-1.2713,-1.2723,-1.272,-1.2724,-1.2723,-1.2733,-1.2732,-1.2765,-1.2769,-1.2736,-1.2736,-1.2737,0,-1.2749,-1.2754,-1.2748,-1.2749,-1.2747,-1.2749,-1.275,-1.2741,-1.2741,-1.2739,-1.2743,-1.2744,-1.2745,-1.2749,-1.2744,-1.2745,-1.2742,-1.2753,-1.2742,-1.2744,-1.2742,-1.2742,-1.2743,-1.2755,-1.2756,-1.2756,-1.2756,0,-1.2776,-1.2772,-1.2773,-1.2773,-1.2773,-1.2773,-1.2772,-1.2773,-1.2764,-1.2765,-1.2767,-1.2768,-1.2769,-1.2771,-1.2771,-1.2769,-1.2761,-1.276,-1.2762,-1.2765,-1.2768,-1.2767,-1.2731,-1.2759,-1.2759,-1.2759,-1.2759,-1.2759,-1.2797,-1.2801,-1.2797,-1.2799,-1.2797,-1.2796,-1.2799,-1.2794,-1.2796,-1.2796,-1.2791,-1.2794,-1.2791,-1.279,-1.2789,-1.2792,-1.2787,-1.279,-1.2791,-1.2792,-1.2793,-1.2767,-1.2792,-1.2792,-1.2792,-1.2791,-1.2791,0,-1.2824,-1.2821,-1.2823,-1.2821,-1.2822,-1.2815,-1.2813,-1.2814,-1.2817,-1.2815,-1.2816,-1.2819,-1.2821,-1.2816,-1.2817,-1.282,-1.2816,-1.282,-1.282,-1.282,-1.2798,-1.2796,-1.2823,-1.2823,-1.2823,-1.2823,-1.2823,-1.2823,-1.2838,-1.2845,-1.284,-1.2845,-1.2842,-1.2845,-1.2845,-1.2844,-1.2843,-1.2846,-1.2847,-1.2844,-1.2841,-1.2842,-1.2843,-1.2841,-1.2842,-1.2848,-1.2845,-1.2825,-1.2822,-1.2819,-1.2817,-1.2848,-1.2848,-1.2867,-1.2867,-1.2867]},{"header":{"parameterUnit":"m.s-1","parameterCategory":1,"la1":30.2991,"la2":30.254,"lo1":-89.0895,"lo2":-89.0444,"dy":0.0017,"dx":0.0017,"nx":28,"ny":28,"refTime":"2025-03-18T03:00:00:Z","depth":0,"parameterNumber":3,"parameterNumberName":"V-component_of_WINDS"},"data":[0,0,0,0,0,0,0,0,0,0,0,0,0,0,0,0,0,0,0,0,0,0,0,0,0,0,0,0,0,0,0,0,0,0,0,0,0,0,0,0,0,0,0,0,0,0,0,0,0,0,0,0,0,0,0,0,0,0,5.9318,5.9319,0,5.9412,5.9413,5.9414,5.9375,5.9372,5.937,5.9368,5.9458,5.9462,5.9466,0,0,0,0,0,0,0,0,0,0,0,0,0,5.9099,5.9104,5.9318,5.9319,5.932,5.9411,5.9413,5.9414,5.9375,5.9372,5.937,5.9367,5.9456,5.9461,5.9467,0,0,0,0,0,0,0,0,0,0,0,0,0,5.9194,5.9105,5.9318,5.9312,5.9312,5.9411,5.9413,5.9414,5.9376,5.9372,5.9369,5.9366,5.9454,5.9461,5.9468,5.9576,0,0,5.9488,5.9491,0,0,0,0,0,0,0,0,5.9188,5.9202,5.9312,5.9312,5.9313,5.9378,5.9369,5.9468,5.9376,5.9351,5.9368,5.9364,5.9433,5.9442,5.9466,5.958,5.9584,5.9489,5.9493,5.9496,5.9497,0,0,0,0,0,0,0,5.9182,5.9197,5.9355,5.9313,5.9314,5.9303,5.9312,5.9387,5.941,5.9353,5.9351,5.9363,5.9433,5.946,5.9468,5.9585,5.9488,5.9494,5.9498,5.9501,5.9792,5.9795,0,0,0,0,0,0,5.9176,5.9192,5.9352,5.9358,5.9241,5.9309,5.932,5.936,5.9409,5.9413,5.9365,5.936,5.945,5.946,5.9471,5.9601,5.9495,5.9502,5.9506,5.9788,5.9793,5.9797,0,0,0,0,0,0,5.9171,5.9191,5.9348,5.9274,5.9293,5.9317,5.9362,5.9364,5.9391,5.9418,5.9421,5.9389,5.9448,5.9462,5.955,5.9604,5.9505,5.9511,5.9784,5.979,5.9795,5.9862,0,0,0,0,0,0,5.9165,5.9189,5.9232,5.9276,5.9298,5.9428,5.9366,5.9368,5.9403,5.9398,5.9441,5.9445,5.9446,5.9541,5.9557,5.9611,5.9516,5.9779,5.9786,5.9793,5.9855,5.9869,5.9881,0,0,0,0,0,5.9158,5.9245,5.9234,5.9254,5.9352,5.9431,5.9443,5.9445,5.9408,5.945,5.9468,5.9444,5.9595,5.955,5.9568,5.9625,5.9776,5.9784,5.9792,5.9849,5.9866,5.9881,0,0,0,0,0,0,5.9205,5.9251,5.9239,5.9344,5.9384,5.9424,5.9477,5.9463,5.9512,5.9505,5.9503,5.9513,5.9604,5.9623,5.9572,5.9732,5.968,5.9692,5.9716,5.9733,5.9746,5.9739,5.9522,0,0,0,0,0,5.9228,5.929,5.9326,5.9415,5.9436,5.9454,5.9488,5.9486,5.9527,5.9543,5.9566,5.9605,5.9661,5.9698,5.9751,5.9858,5.9866,5.9906,5.9919,5.9929,5.994,5.9997,6.0015,5.9824,5.9824,5.9824,0,0,5.9275,5.9308,5.9347,5.9426,5.9457,5.9519,5.9468,5.9536,5.9583,5.9552,5.9638,5.9657,5.97,5.9798,5.9842,5.9817,5.9994,5.994,5.9948,5.9953,6.0007,6.0025,6.0041,5.983,5.9829,5.9828,0,0,5.9393,5.9425,5.9503,5.9536,5.9584,5.9595,5.9614,5.9657,5.9669,5.9756,5.9734,5.9788,5.9885,5.9917,5.9945,6.0077,6.0057,6.0095,6.0162,6.0218,6.0233,6.0246,6.0293,6.031,6.0105,6.0105,6.0105,0,5.9445,5.9542,5.9544,5.9616,5.965,5.9628,5.9706,5.9737,5.9799,5.9823,5.9794,5.9916,5.9943,6.0048,6.0081,6.0105,6.0125,6.0089,6.0231,6.0245,6.0257,6.0301,6.0319,6.0109,6.0109,6.0108,6.0108,0,5.9603,5.967,5.9727,5.979,5.9831,5.9905,5.9918,5.9959,5.9954,5.9967,6.0056,6.0088,6.0147,6.0172,6.0167,6.0277,6.026,6.0231,6.0178,6.0279,6.0321,6.0338,6.0115,6.0114,6.0113,6.0112,0,0,5.9752,5.9818,5.9839,5.9868,5.992,5.997,6.0043,6.0104,6.0139,6.0183,6.0243,6.0326,6.0301,6.0333,6.0331,6.0381,6.0483,6.0346,6.0347,6.037,6.0605,6.0626,6.0646,6.047,6.0473,6.0476,6.0602,0,5.9874,6.0005,6.001,6.0127,6.0189,6.0169,6.0233,6.027,6.0286,6.0338,6.0353,6.0413,6.0375,6.0395,6.0443,6.046,6.053,6.0451,6.0524,6.0527,6.0514,6.0668,6.069,6.0807,6.0618,6.0621,6.0623,0,6.0034,6.0086,6.0211,6.0255,6.0281,6.0338,6.0394,6.0445,6.0487,6.0495,6.0532,6.0523,6.0596,6.0542,6.0641,6.0588,6.0618,6.0631,6.0635,6.0641,6.058,6.0677,6.0844,6.0862,6.0648,6.0646,6.0645,0,6.013,6.0231,6.0318,6.0344,6.0398,6.0438,6.0462,6.0501,6.0538,6.0586,6.0609,6.0665,6.0695,6.0738,6.0743,6.0703,6.0843,6.0789,6.085,6.085,6.0879,6.0877,6.1053,6.09,6.09,6.0899,6.0899,0,6.0266,6.0342,6.0363,6.0416,6.0502,6.0506,6.059,6.061,6.0646,6.0702,6.0688,6.074,6.0745,6.0799,6.0803,6.0885,6.0898,6.0905,6.0905,6.0906,6.0906,6.0925,6.0917,6.0904,6.0903,6.0902,6.0901,0,6.0387,6.0404,6.0498,6.0542,6.0555,6.0616,6.0653,6.0704,6.0718,6.0789,6.0806,6.0827,6.089,6.09,6.0973,6.0976,6.1074,6.1066,6.106,6.1059,6.1119,6.1113,6.1313,6.1339,6.117,6.1171,6.1173,0,6.0472,6.0531,6.0583,6.0621,6.0647,6.0708,6.0746,6.0753,6.0792,6.0846,6.089,6.0951,6.1001,6.1102,6.1122,6.1178,6.1171,6.1237,6.1179,6.1178,6.1171,6.1168,6.1173,6.1248,6.125,6.1251,6.1252,0,6.0621,6.0627,6.0683,6.0743,6.0789,6.0836,6.088,6.0911,6.0923,6.0968,6.1033,6.1072,6.1148,6.1209,6.1265,6.1287,6.1272,6.1271,6.1288,6.1289,6.1283,6.1287,6.109,6.1266,6.1265,6.1264,6.1263,6.1262,6.0727,6.0779,6.0824,6.0887,6.0921,6.0963,6.1013,6.1035,6.109,6.1154,6.1154,6.1225,6.1265,6.1339,6.1365,6.142,6.1398,6.1423,6.1429,6.1435,6.144,6.1276,6.143,6.143,6.1429,6.1429,6.1429,0,6.0875,6.0903,6.0962,6.1025,6.1075,6.1059,6.1107,6.1148,6.1212,6.1253,6.1303,6.1377,6.1437,6.1463,6.1521,6.156,6.1554,6.1575,6.1571,6.1577,6.1457,6.1436,6.1578,6.1578,6.1578,6.1578,6.1578,6.1578,6.0958,6.1045,6.1056,6.116,6.1187,6.1259,6.1288,6.1325,6.1358,6.1443,6.1493,6.1511,6.1545,6.1606,6.1659,6.1665,6.1687,6.1711,6.1713,6.16,6.1585,6.1571,6.1551,6.1715,6.1716,6.1829,6.183,6.1831]}]]